Location: Wildlife_Club
(35.6000°N, 81.4330°W)
Time: 23:57:53
(UTC-04:00)

A-11 Canister half - Pass Details

Date: 29 June 2019
Orbit: 1514 x 1685 km, 47.2° (Epoch: 17 July)

Event Time Altitude Azimuth Distance (km) Brightness Sun altitude
Rises 08:35:24 0° 214° (SW) 4,925 11.3 26.3°
Reaches altitude 10° 08:38:39 10° 210° (SSW) 3,939 10.9 26.9°
Maximum altitude 08:48:26 56° 135° (SE) 1,936 10.3 28.9°
Drops below altitude 10° 08:58:03 10° 61° (ENE) 3,879 12.4 30.8°
Sets 09:01:13 0° 58° (ENE) 4,846 12.5 31.4°
